Meteo Giornale » Osservazioni meteo Slovenia » Portoroz

ore: 05:00 - Osservazioni Meteo Portoroz
Lat. 45° 31' N Lon. 13° 34' E Alt. 95 metri s.l.m.

sereno Europe/Ljubljana

20 °C

Sereno

Temp. 24 Ore

20 °C

30 °C

Sud-Est

11.1 Km/h

Dew point 19 °C

Umidità 93 %

Visibilità  10 Km

Il sole sorge alle ore 05:36

Il sole tramonta alle ore 20:47

Data e Ora Cielo e Fenomeni T °C DP °C Um. % Pres. hPa Vis. km Vento km/h
Oggi h: 05:00 sereno Sereno 20 19 93 1020 10 SE 11.1
Oggi h: 04:30 sereno Sereno 21 19 88 1020 10 E/SE 9.3
Oggi h: 04:00 sereno Sereno 21 19 88 1020 10 E/SE 7.4
Oggi h: 03:30 sereno Sereno 21 19 88 1020 10 E/SE 7.4
Oggi h: 03:00 sereno Sereno 21 19 88 1020 10 SE 9.3
Oggi h: 02:30 sereno Sereno 21 20 94 1020 10 SE 7.4
Oggi h: 02:00 sereno Sereno 22 20 88 1020 10 E/SE 7.4
Oggi h: 01:30 sereno Sereno 22 20 88 1020 10 SE 7.4
Oggi h: 01:00 sereno Sereno 22 20 88 1020 10 E/SE 9.3
Oggi h: 00:30 sereno Sereno 23 20 83 1020 10 N 5.5
Oggi h: 00:00 sereno Sereno 23 20 83 1020 10 N 5.5
Ieri h: 23:30 sereno Sereno 23 21 88 1020 10 N 3.7
Ieri h: 23:00 sereno Sereno 23 21 88 1020 10 N 5.5
Ieri h: 22:30 sereno Sereno 24 21 83 1020 10 N 5.5
Ieri h: 22:00 sereno Sereno 24 21 83 1019 10 N 5.5
Ieri h: 21:30 sereno Sereno 25 20 73 1019 10 N 3.7
Ieri h: 21:00 sereno Sereno 27 20 65 1019 10 N 0
Ieri h: 20:30 sereno Sereno 28 20 61 1018 10 N 3.7
Ieri h: 20:00 sereno Sereno 29 20 58 1018 10 N 3.7
Ieri h: 19:30 nuvoloso Nuvoloso 30 19 51 1018 10 N 3.7
Ieri h: 19:00 nuvoloso Nuvoloso 30 20 55 1018 10 N 1.8
Ieri h: 17:30 molto_nuvoloso Molto Nuvoloso 29 21 62 1018 10 SO 7.4
Ieri h: 17:00 nuvoloso Nuvoloso 29 21 62 1018 10 O/SO 13
Ieri h: 16:30 nuvoloso Nuvoloso 30 22 62 1018 10 O/SO 13
Ieri h: 16:00 nuvoloso Nuvoloso 30 22 62 1018 10 O/SO 14.8
Ieri h: 15:30 nuvoloso Nuvoloso 30 22 62 1018 10 O 11.1
Ieri h: 14:30 poco_nuvoloso Poco Nuvoloso 29 24 74 1018 10 N/NO 11.1
Ieri h: 14:00 poco_nuvoloso Poco Nuvoloso 28 23 74 1019 10 NO 13
Ieri h: 13:30 poco_nuvoloso Poco Nuvoloso 29 23 70 1019 10 NO 9.3
Ieri h: 13:00 poco_nuvoloso Poco Nuvoloso 28 23 74 1019 10 NO 11.1
Ieri h: 12:30 poco_nuvoloso Poco Nuvoloso 28 22 69 1019 10 N/NO 14.8
Ieri h: 12:00 poco_nuvoloso Poco Nuvoloso 28 22 69 1019 10 N/NO 14.8
Ieri h: 11:30 sereno Sereno 29 19 54 1019 10 N/NO 13
Ieri h: 11:00 sereno Sereno 29 20 58 1018 10 NO 14.8
Ieri h: 10:30 sereno Sereno 30 17 45 1018 10 N 3.7
Ieri h: 10:00 sereno Sereno 30 17 45 1018 10 N 3.7
Ieri h: 09:30 sereno Sereno 28 17 51 1019 10 N 3.7
Ieri h: 09:00 sereno Sereno 27 17 54 1019 10 N 3.7
Ieri h: 08:30 sereno Sereno 25 17 61 1019 10 E/SE 7.4
Ieri h: 08:00 sereno Sereno 23 17 68 1019 10 E/SE 7.4
Ieri h: 07:30 sereno Sereno 22 16 68 1018 10 E/SE 11.1
Ieri h: 07:00 sereno Sereno 20 16 77 1018 10 E/SE 13